Weather Roundup
Issued by NWS Springfield, MO

Home | Current Version | Previous Version | Text Only | Print | Product List | Glossary On
Versions: 1 2 3 4 5 6 7 8 9 10 11 12 13 14 15 16 17 18 19 20 21 22 23 24 25 26 27 28 29 30 31 32 33 34 35 36 37 38 39 40 41 42 43 44 45 46 47 48 49 50
000
NZUS99 KSGF 192007
HRRSGF

HOURLY WEATHER
NATIONAL WEATHER SERVICE SPRINGFIELD MO
200 PM CST SUN FEB 19 2017

......SGF CWA......

CITY           SKY/WX    TMP DP  RH WIND       PRES   REMARKS
SPRINGFIELD    SUNNY     71  56  58 S13       29.96F
JOPLIN         SUNNY     74  56  53 S9        29.94F
WEST PLAINS    CLOUDY    64  56  75 S9        30.06F
ROLLA          SUNNY     75  46  35 S12       29.98F
OSAGE BEACH    SUNNY     76  47  35 S9G21     29.97F
BRANSON        PTSUNNY   73  57  56 SE14      29.99F

......SURROUNDING SGF CWA......

CITY           SKY/WX    TMP DP  RH WIND       PRES   REMARKS
CHANUTE        SUNNY     70  55  59 S15       29.92F
PARSONS        PTSUNNY   69  56  62 S12       29.93F
COFFEYVILLE    CLOUDY    68  57  68 S15       29.92F
EMPORIA        CLOUDY    58  54  86 S14       29.90F
GROVE OK       SUNNY     75  57  53 S5        29.94F
SILOAM SPRINGS SUNNY     70  55  60 S14       29.95F
HARRISON AR    SUNNY     75  58  55 S14       29.99F
NEAR YELLVILLE MOSUNNY   73  55  53 SE8       29.98F

......KANSAS AND MISSOURI......

CITY           SKY/WX    TMP DP  RH WIND       PRES   REMARKS
KANSAS CTY INT PTSUNNY   72  53  51 S15G21    29.90F
DOWNTOWN KC    SUNNY     73  53  49 S9        29.89F
COLUMBIA       SUNNY     72  49  44 S10       29.98F
SEDALIA        SUNNY     76  47  35 SE15G21   29.96F
ST JOSEPH      MOSUNNY   71  53  52 S12G22    29.89F
ST LOUIS       MOSUNNY   71  51  49 VRB7      30.04S
SPIRIT OF STL  PTSUNNY   73  47  39 S7        30.02S
KIRKSVILLE     MOSUNNY   72  48  42 S10       29.97F
WICHITA        CLOUDY    61  55  81 S14       29.86F
TOPEKA         MOSUNNY   68  55  63 S14G20    29.88F
OLATHE         SUNNY     71  55  56 S12G22    29.91F

......TENNESSEE......

CITY           SKY/WX    TMP DP  RH WIND       PRES   REMARKS
MEMPHIS        MOSUNNY   75  53  46 CALM      30.06F
NASHVILLE      MOSUNNY   67  50  54 E3        30.11F

......ARKANSAS.......

CITY           SKY/WX    TMP DP  RH WIND       PRES   REMARKS
FAYETTEVILLE   SUNNY     70  55  59 S10       29.97F
FT SMITH       PTSUNNY   76  57  51 NE9       29.94F
LITTLE ROCK    MOSUNNY   74  60  61 E10       30.02F

......OKLAHOMA.......

CITY           SKY/WX    TMP DP  RH WIND       PRES   REMARKS
TULSA          CLOUDY    69  59  70 S16       29.89F
MCALESTER      CLOUDY    70  59  68 S8        29.93F
OKLAHOMA CITY  PTSUNNY   72  59  63 S20       29.86F

......IOWA............

CITY           SKY/WX    TMP DP  RH WIND       PRES   REMARKS
DES MOINES     CLOUDY    72  46  39 S21       29.89F
QUAD CITIES    SUNNY     73  36  25 SE7       29.97F

......ILLINOIS........

CITY           SKY/WX    TMP DP  RH WIND       PRES   REMARKS
QUINCY         SUNNY     71  47  42 S10       29.99F
CHICAGO        MOSUNNY   68  31  25 N3        30.03F



USA.gov is the U.S. government's official web portal to all federal, state and local government web resources and services.